Tracking 31027 objects as of 19-Jul-2025
HD Live streaming from Space Station
objects crossing your sky now

STARLINK-30313

Track STARLINK-30313 now!
10-day predictions
STARLINK-30313 is classified as:


NORAD ID: 57676
Int'l Code: 2023-124P
Perigee: 481.5 km
Apogee: 483.2 km
Inclination: 53.2 °
Period: 94.1 minutes
Semi major axis: 6853 km
RCS: Unknown
Launch date: August 22, 2023
Source: United States (US)
Launch site: AIR FORCE WESTERN TEST RANGE (AFWTR)
Your satellite tracking list
SKOLTECH-B2
Track 1 satellite(s)




NASA's NSSDC Master Catalog

Two Line Element Set (TLE):
1 57676U 23124P   25199.32439997  .00000323  00000-0  23044-4 0  9990
2 57676  53.1592 215.5934 0001203  84.7995 275.3143 15.30193479107684
Source of the keplerian elements: AFSPC